Wind_Speed
16 16 15 15 17 17 18 21 23 24 25 23 23 24 28 30 30 31 32 33 36 40 44 44 45 45 43 41 40 41 43 46 50 53 53 54 59 61 62 67 70 70 68 66
13 14 14 15 17 18 21 23 22 23 24 24 26 27 29 30 32 33 35 36 37 40 41 41 39 38 38 42 46 47 50 53 55 56 57 60 63 68 72 76 74 72 73 72
15 14 15 16 17 18 21 20 22 22 21 24 27 31 31 33 35 36 36 37 38 39 39 37 36 38 41 45 51 54 56 57 58 60 62 65 71 75 75 74 75 76 76 74
13 12 14 17 17 17 19 19 20 19 19 23 27 30 30 33 35 36 35 35 37 39 39 39 41 44 47 52 57 59 61 62 61 64 67 72 76 75 76 78 80 79 80 81
17 17 17 16 15 17 18 19 21 22 22 25 27 29 32 33 34 35 36 37 39 41 43 45 46 50 54 57 59 61 63 65 67 70 75 77 78 79 80 80 82 85 86 87
21 21 19 19 17 18 18 20 21 24 25 26 27 28 31 34 36 38 40 42 44 46 47 50 52 54 56 58 61 64 65 67 72 77 80 80 81 82 83 87 89 90 92 96
24 25 23 22 22 21 20 21 22 24 26 27 28 30 32 34 37 41 44 48 49 50 51 53 55 56 57 62 63 64 68 72 78 79 80 82 83 85 89 93 93 96 96 92
26 27 27 26 25 24 22 21 23 24 25 26 29 32 34 36 39 42 46 48 49 51 53 55 57 56 61 63 65 69 74 79 80 83 87 87 90 93 96 100 99 92 84 78
28 28 29 30 29 26 25 24 24 26 27 30 32 35 36 38 41 43 47 49 52 56 59 60 56 60 62 67 72 75 80 82 84 88 91 93 95 99 102 96 85 75 71 69
31 32 32 32 32 28 27 27 29 30 31 34 38 39 40 41 44 46 49 53 56 58 58 57 60 64 67 72 77 83 85 85 89 94 97 98 102 101 92 80 75 71 67 64
33 34 33 32 30 29 29 29 32 35 36 37 40 45 43 45 47 49 52 56 57 57 59 61 64 69 73 79 83 85 87 90 94 98 102 106 101 90 83 81 76 71 66 63
37 37 35 34 33 33 34 34 36 39 41 42 42 47 49 51 51 52 53 56 59 61 63 65 68 74 80 83 84 88 92 96 98 103 108 100 91 86 83 81 78 71 66 59
41 41 39 38 38 38 39 40 41 42 44 46 46 50 52 53 54 56 58 61 63 65 64 68 75 80 82 84 90 94 96 101 104 106 98 90 89 87 84 77 70 62 58 51
44 43 42 40 41 44 44 45 45 45 45 48 51 51 54 56 58 61 61 62 63 65 70 77 80 83 86 91 95 98 103 106 105 97 92 92 92 85 76 67 60 52 47 42
43 43 42 42 44 43 40 42 45 44 46 48 49 52 55 57 59 61 62 62 66 72 76 79 82 87 91 95 99 103 106 104 98 96 98 95 87 75 66 57 48 41 37 33
35 36 39 39 39 38 40 45 47 49 50 51 54 58 58 57 59 61 63 67 71 75 78 82 87 91 95 99 103 105 104 97 96 99 97 86 75 64 52 44 38 33 30 28
41 41 40 41 43 44 45 48 49 49 52 55 56 57 58 61 64 66 70 72 74 77 82 86 91 94 98 101 102 100 95 95 98 98 88 74 59 49 43 39 36 32 29 29
48 44 43 43 44 46 48 49 51 54 57 58 60 61 65 67 68 69 71 73 76 82 86 90 95 97 99 98 93 91 93 95 96 89 74 58 47 44 42 40 38 37 37 36
45 44 45 45 43 43 48 51 54 58 62 61 63 64 65 66 67 69 73 77 82 85 89 92 95 94 92 87 85 89 91 95 88 75 58 46 44 46 46 45 43 41 37 33
42 44 45 46 48 50 57 60 61 63 65 65 65 65 66 68 71 73 78 82 86 89 91 94 88 83 79 81 85 88 91 84 73 59 44 43 47 48 48 44 40 35 28 22
50 53 54 55 55 56 58 58 59 61 63 64 66 67 69 72 74 78 81 85 88 89 88 82 74 74 78 82 84 86 82 73 59 40 38 44 48 47 44 40 35 28 21 17
45 45 46 48 51 52 57 59 61 64 67 68 69 72 75 77 79 81 84 85 85 79 73 66 69 74 75 77 79 79 71 59 40 31 38 43 46 45 45 39 32 25 19 16
47 50 51 54 56 59 61 64 68 71 73 73 76 77 78 79 79 80 79 77 68 62 59 61 66 68 72 75 74 70 61 44 24 29 34 39 41 45 40 31 25 21 21 21
59 59 59 62 66 67 69 71 73 73 74 73 73 72 69 69 68 66 65 56 51 52 55 61 64 67 71 71 68 63 46 25 19 26 31 33 33 35 31 25 23 21 22 25
64 65 68 69 69 70 72 72 73 70 65 60 56 55 57 58 57 50 46 45 50 53 57 61 67 69 69 67 62 50 32 12 18 24 28 27 27 28 24 21 20 21 24 25
67 65 65 66 66 64 61 57 53 50 48 47 46 46 45 38 37 40 40 43 47 52 58 64 68 69 67 62 53 36 15 9 17 21 26 22 22 25 20 16 16 21 24 26
Wind_Direction
288 292 299 301 299 300 298 298 298 297 289 285 284 283 285 285 283 287 293 298 303 303 299 302 304 307 309 310 312 310 308 308 309 309 309 308 309 312 314 315 318 318 318 315
294 302 293 296 301 298 291 291 299 297 300 294 293 294 294 294 296 299 303 304 302 298 300 303 307 309 312 314 310 310 312 316 315 313 311 310 313 316 316 318 317 317 314 312
288 293 299 301 298 297 297 306 307 312 306 298 298 297 296 296 298 302 303 303 303 303 307 310 309 311 312 310 311 315 318 318 316 314 313 316 317 317 316 315 314 312 310 308
278 298 302 294 299 304 308 318 314 307 298 292 287 289 293 297 301 303 305 304 304 306 311 310 310 313 312 313 315 317 317 316 315 315 316 316 316 315 315 314 312 311 310 307
276 291 303 303 304 308 312 312 305 299 294 289 290 295 298 301 301 301 302 303 304 308 310 311 307 313 315 313 314 314 314 316 318 317 317 317 316 315 313 312 311 310 307 306
275 283 292 298 304 306 314 312 310 305 298 295 297 296 298 299 298 298 299 301 304 310 312 310 311 312 312 313 314 315 317 317 315 315 315 315 314 314 312 312 310 308 306 304
271 278 285 296 304 308 311 310 305 302 301 303 303 300 300 299 299 301 302 303 306 308 309 313 312 311 313 316 316 316 315 315 316 316 315 313 312 312 311 310 308 305 303 301
270 282 290 294 295 301 300 301 304 304 302 299 298 299 301 300 300 301 303 307 310 311 312 311 311 310 314 315 314 314 314 315 315 315 313 314 314 312 311 310 308 306 305 303
273 281 285 286 285 286 288 289 295 298 300 301 301 298 299 300 302 304 306 307 309 311 312 310 309 313 314 313 314 314 314 314 314 315 315 312 312 312 311 309 308 306 304 303
268 273 280 283 283 284 288 288 293 295 298 299 299 298 298 298 300 303 306 309 311 310 309 310 309 311 313 313 313 314 314 315 313 314 312 312 313 313 311 309 306 305 301 298
263 271 276 281 280 282 283 284 290 293 294 295 296 297 297 300 304 306 306 309 308 310 311 308 309 311 312 313 314 315 315 314 313 313 314 315 315 314 311 311 309 308 304 299
262 268 274 277 276 278 282 285 290 291 292 292 293 296 300 302 303 303 305 307 308 309 309 309 309 311 313 314 315 315 315 314 314 315 317 316 315 316 316 313 311 309 305 300
261 265 273 276 278 280 281 284 287 288 290 291 292 294 297 300 302 306 309 308 308 309 309 309 310 312 313 315 315 314 315 316 316 318 317 319 320 321 317 313 310 307 303 300
266 267 271 277 281 282 283 284 285 285 286 289 292 293 296 300 302 305 307 309 309 307 308 310 312 313 315 316 315 315 317 318 319 319 323 325 324 321 318 316 315 310 306 304
267 268 272 273 275 280 284 285 288 290 291 290 291 294 298 302 304 305 306 307 307 309 310 312 312 314 315 315 316 316 319 320 323 325 326 327 325 323 324 322 320 317 314 307
273 272 273 278 283 287 290 288 287 287 288 291 293 296 301 303 304 305 305 307 308 309 310 311 313 314 315 316 317 318 321 324 325 326 328 328 327 329 329 329 330 326 319 316
270 274 279 281 283 285 285 285 288 288 289 293 297 299 302 303 304 305 306 306 308 309 311 312 313 315 316 318 318 321 323 325 326 327 329 329 331 333 332 334 333 330 325 318
272 277 280 280 284 286 286 286 287 289 291 293 296 298 301 303 304 304 305 308 309 310 311 313 314 315 317 319 320 322 322 325 325 329 329 332 333 332 332 331 327 321 315 312
273 277 277 276 276 281 288 290 292 293 294 296 298 301 302 302 304 306 307 308 309 310 311 312 313 316 317 319 320 322 323 326 328 329 332 334 331 331 330 327 323 322 319 314
275 275 275 277 279 281 286 290 292 293 296 298 300 302 303 305 306 307 307 307 308 308 310 312 315 316 319 319 320 322 324 326 330 332 335 333 333 333 333 333 333 329 330 331
278 280 281 282 283 286 289 292 293 295 296 298 301 302 304 304 304 304 304 304 306 308 311 313 317 319 319 321 322 324 327 329 331 336 335 335 338 342 343 346 348 352 358 3
279 282 285 286 284 286 289 292 293 295 296 297 299 301 301 301 301 301 302 303 306 310 313 319 320 320 322 322 325 326 328 331 336 339 338 342 348 354 357 358 4 12 20 35
281 284 286 289 291 290 289 290 292 294 296 298 299 299 299 298 297 297 301 305 309 314 321 323 322 324 324 325 326 328 332 334 343 338 345 351 1 2 2 11 24 41 57 69
282 285 289 289 288 290 290 292 293 294 294 295 295 295 295 296 298 300 304 308 316 325 325 323 326 329 330 326 327 331 332 340 341 342 351 356 10 8 8 22 40 52 67 72
283 285 287 289 291 292 292 293 294 296 297 296 296 295 295 296 298 305 310 319 322 324 325 327 332 333 330 328 330 332 335 347 339 345 354 359 14 12 10 23 43 60 72 77
283 285 285 288 291 292 294 296 298 300 302 301 297 295 296 303 309 316 322 322 325 326 329 333 334 334 331 331 334 331 344 347 340 350 355 359 13 12 13 30 51 79 82 85
Height
10908 10908 10907 10907 10906 10905 10904 10903 10902 10900 10897 10894 10892 10889 10887 10885 10882 10879 10876 10875 10872 10868 10863 10860 10856 10851 10848 10844 10838 10831 10825 10820 10812 10805 10798 10790 10782 10774 10765 10756 10745 10735 10726 10719
10905 10905 10904 10903 10902 10901 10900 10899 10898 10895 10893 10889 10886 10884 10882 10878 10875 10873 10871 10868 10865 10860 10856 10853 10849 10845 10840 10834 10826 10820 10815 10808 10800 10793 10785 10776 10766 10755 10745 10733 10724 10716 10709 10703
10902 10901 10901 10899 10899 10898 10896 10895 10892 10891 10889 10885 10882 10878 10877 10873 10870 10868 10865 10861 10856 10852 10850 10847 10842 10837 10832 10823 10814 10808 10801 10795 10785 10777 10769 10759 10748 10737 10726 10717 10709 10703 10695 10687
10898 10897 10898 10896 10895 10893 10892 10891 10888 10887 10885 10882 10879 10875 10872 10868 10865 10861 10859 10855 10850 10846 10843 10839 10833 10826 10819 10811 10803 10795 10788 10780 10774 10765 10755 10745 10734 10724 10712 10704 10693 10683 10674 10665
10893 10893 10893 10891 10890 10889 10888 10886 10884 10882 10880 10878 10875 10869 10864 10861 10858 10855 10852 10849 10844 10840 10836 10830 10822 10816 10808 10800 10793 10785 10777 10769 10758 10749 10740 10729 10718 10709 10699 10689 10677 10666 10654 10642
10888 10887 10888 10886 10885 10884 10883 10882 10880 10877 10875 10873 10869 10865 10860 10856 10852 10848 10844 10840 10835 10832 10827 10820 10814 10807 10800 10792 10783 10774 10765 10757 10746 10736 10725 10715 10704 10693 10682 10671 10658 10644 10631 10618
10883 10882 10882 10882 10881 10880 10879 10877 10876 10874 10870 10866 10862 10858 10855 10851 10846 10841 10836 10831 10828 10824 10818 10812 10805 10797 10789 10781 10771 10762 10754 10744 10733 10722 10711 10700 10689 10678 10665 10651 10638 10624 10609 10594
10878 10877 10877 10877 10876 10875 10874 10873 10870 10867 10864 10862 10857 10852 10850 10845 10840 10835 10829 10824 10819 10814 10809 10803 10796 10787 10779 10769 10761 10752 10742 10732 10720 10707 10693 10681 10668 10656 10642 10628 10612 10595 10583 10571
10871 10871 10871 10870 10869 10869 10868 10866 10864 10861 10858 10854 10850 10845 10843 10838 10833 10828 10822 10816 10811 10806 10800 10792 10785 10777 10769 10760 10751 10741 10730 10718 10703 10689 10675 10663 10651 10635 10618 10600 10586 10573 10561 10550
10865 10864 10864 10863 10862 10862 10861 10860 10857 10854 10852 10847 10842 10837 10835 10830 10826 10821 10815 10809 10804 10797 10789 10782 10776 10768 10759 10749 10738 10726 10713 10701 10686 10672 10657 10642 10628 10610 10591 10576 10563 10551 10539 10528
10858 10858 10858 10856 10856 10855 10854 10852 10850 10847 10844 10841 10835 10826 10827 10822 10818 10813 10807 10801 10794 10787 10780 10772 10764 10755 10746 10735 10724 10711 10698 10684 10669 10653 10635 10619 10600 10584 10568 10554 10540 10530 10517 10508
10850 10850 10850 10850 10849 10848 10846 10844 10842 10838 10835 10831 10827 10820 10816 10813 10810 10805 10799 10792 10785 10777 10769 10761 10753 10743 10732 10720 10708 10695 10680 10665 10649 10633 10613 10594 10577 10561 10544 10528 10515 10504 10494 10486
10843 10842 10843 10843 10842 10841 10839 10837 10834 10830 10825 10821 10819 10812 10808 10804 10798 10793 10787 10780 10773 10765 10758 10749 10739 10728 10716 10705 10691 10676 10661 10644 10627 10608 10590 10572 10551 10534 10517 10503 10491 10480 10473 10467
10833 10834 10836 10836 10835 10833 10831 10828 10825 10821 10819 10814 10809 10805 10798 10795 10790 10784 10776 10768 10759 10751 10744 10735 10723 10711 10700 10687 10671 10655 10639 10622 10602 10583 10565 10546 10528 10511 10495 10481 10470 10461 10456 10451
10824 10825 10825 10826 10825 10824 10821 10816 10813 10810 10808 10805 10800 10796 10791 10786 10780 10773 10766 10758 10749 10740 10729 10718 10708 10697 10683 10667 10652 10634 10618 10601 10579 10560 10544 10526 10507 10491 10477 10465 10455 10448 10444 10441
10815 10816 10816 10816 10816 10816 10811 10805 10803 10800 10798 10794 10790 10786 10783 10777 10771 10763 10754 10747 10739 10728 10716 10705 10693 10680 10665 10649 10633 10616 10598 10580 10562 10545 10526 10508 10492 10478 10466 10455 10447 10442 10437 10433
10807 10808 10809 10807 10806 10805 10800 10796 10794 10789 10787 10784 10780 10775 10770 10764 10759 10751 10741 10733 10725 10712 10701 10690 10677 10662 10647 10632 10614 10597 10580 10566 10549 10530 10513 10497 10483 10470 10460 10450 10443 10437 10431 10426
10801 10801 10800 10799 10796 10794 10789 10786 10783 10779 10775 10773 10769 10764 10759 10752 10746 10738 10728 10719 10709 10697 10686 10673 10660 10645 10631 10615 10599 10583 10569 10554 10536 10519 10502 10488 10476 10465 10454 10445 10437 10430 10423 10418
10791 10791 10790 10789 10786 10784 10778 10775 10772 10767 10760 10760 10756 10752 10747 10738 10730 10724 10714 10704 10693 10682 10671 10660 10647 10633 10617 10601 10587 10572 10557 10540 10523 10508 10494 10483 10472 10461 10449 10439 10429 10420 10413 10407
10782 10781 10779 10779 10778 10774 10766 10762 10760 10754 10747 10745 10742 10737 10732 10725 10717 10708 10699 10687 10677 10668 10658 10645 10632 10619 10605 10592 10577 10561 10546 10530 10516 10502 10490 10479 10468 10456 10443 10431 10420 10411 10404 10400
10769 10767 10766 10765 10764 10761 10753 10751 10746 10742 10738 10732 10729 10724 10718 10712 10704 10694 10684 10674 10665 10655 10644 10632 10620 10606 10594 10579 10563 10550 10535 10522 10509 10498 10489 10478 10466 10452 10438 10426 10416 10407 10402 10398
10758 10757 10755 10753 10750 10749 10744 10740 10735 10730 10725 10721 10717 10711 10705 10697 10688 10679 10670 10661 10651 10642 10631 10621 10608 10595 10583 10568 10554 10541 10527 10515 10505 10497 10489 10478 10465 10451 10438 10427 10417 10410 10406 10403
10747 10745 10744 10742 10740 10737 10733 10728 10721 10717 10713 10709 10703 10696 10688 10682 10673 10664 10657 10648 10639 10631 10622 10611 10600 10588 10573 10558 10545 10532 10521 10511 10504 10498 10489 10479 10468 10456 10445 10435 10426 10420 10415 10411
10733 10732 10734 10730 10724 10722 10719 10714 10709 10704 10700 10695 10687 10680 10672 10665 10658 10652 10645 10638 10629 10622 10614 10603 10591 10578 10564 10549 10537 10525 10515 10508 10504 10498 10490 10482 10473 10465 10456 10447 10438 10431 10425 10419
10722 10721 10716 10713 10710 10706 10702 10698 10693 10688 10682 10677 10671 10664 10658 10652 10647 10641 10636 10629 10622 10615 10605 10594 10583 10569 10555 10542 10529 10519 10511 10507 10504 10498 10491 10484 10476 10471 10464 10455 10447 10440 10434 10429
10708 10704 10701 10699 10696 10691 10687 10683 10679 10674 10669 10663 10658 10653 10648 10644 10639 10633 10629 10624 10617 10607 10597 10587 10575 10562 10547 10534 10523 10514 10509 10507 10504 10499 10492 10486 10479 10474 10468 10461 10454 10448 10444 10440